Погода в Морине

Россия / Псковская область     57°53′35″N   30°20′45″E
темп.,
°C
ветер,
м/с
пор.,
м/с
влажн.,
%
обл.,
%
осадки,
мм/ч
давл.,
гПа
погр.,
м
8 мая, сб
сб800:00+5ю3789100 0.6 1005260
03:00+4ссв2596100 6.9 1003605
06:00+4сз3798100 3.6 1003639
09:00+5зюз4792100 4.0 1004839
12:00+6з588162 0.3 10061006
15:00+8зсз575581 0.3 10071671
18:00+6зсз3670100 0.1 1009948
21:00+4сз388597 0.3 1010385
9 мая, вс
вс900:00+1зсз39965 0.0 1012224
03:000з311915 0.0 1013277
06:000з310915 0.0 1016275
09:00+6зсз46600 0.0 1017692
12:00+10зсз47405 0.0 10181920
15:00+12з464399 0.0 10191931
18:00+12зюз254987 0.0 10202044
21:00+6ю357290 0.0 102171
10 мая, пн
пн1000:00+5ю41275100 0.0 1021276
03:00+7ююз41174100 0.0 1022401
06:00+6ю51590100 0.9 1021601
09:00+8ююз51384100 0.9 1022525
12:00+14юз6962100 0.0 1023760
15:00+19ююз585338 0.0 10231489
18:00+18ююз4863100 0.0 1023917
21:00+13ю3985100 0.0 1024180
11 мая, вт
вт1100:00+11ю4128565 0.0 1025304
03:00+9ю4129095 0.0 1026264
06:00+9ю412869 0.0 1026299
09:00+14ю5106683 0.0 1027520
12:00+17ю575259 0.0 10271020
15:00+19ю68485 0.0 10261224
18:00+18ю48580 0.0 10251025
21:00+12ююв37810 0.0 1025110
12 мая, ср
ср1200:00+10ююв38874 0.0 1026131
03:00+9ююв389430 0.0 1026146
06:00+10ююв279156 0.0 1026140
09:00+15ююв3569100 0.0 1026393
12:00+19юв4550100 0.0 10251022
15:00+21юв4644100 0.0 10241355
18:00+20вюв365782 0.0 1023368
21:00+15вюв33764 0.0 102342